TimeCDT,TemperatureF,Dew PointF,Humidity,Sea Level PressureIn,VisibilityMPH,Wind Direction,Wind SpeedMPH,Gust SpeedMPH,PrecipitationIn,Events,Conditions,WindDirDegrees,DateUTC
12:35 AM,60.8,60.8,100,30.20,1.8,Calm,Calm,-,N/A,,Mist,0,2012-10-13 05:35:00
1:15 AM,59.0,59.0,100,30.20,5.0,Calm,Calm,-,N/A,,Clear,0,2012-10-13 06:15:00
1:35 AM,59.0,59.0,100,30.20,3.0,Calm,Calm,-,N/A,,Mist,0,2012-10-13 06:35:00
2:15 AM,62.6,60.8,94,30.20,7.0,Calm,Calm,-,N/A,,Mostly Cloudy,0,2012-10-13 07:15:00
2:35 AM,60.8,60.8,100,30.20,7.0,Calm,Calm,-,N/A,,Mostly Cloudy,0,2012-10-13 07:35:00
2:55 AM,62.6,60.8,94,30.20,5.0,Calm,Calm,-,N/A,,Mostly Cloudy,0,2012-10-13 07:55:00
3:15 AM,62.6,60.8,94,30.19,5.0,Calm,Calm,-,N/A,,Overcast,0,2012-10-13 08:15:00
3:35 AM,62.6,62.6,100,30.20,5.0,Calm,Calm,-,N/A,,Overcast,0,2012-10-13 08:35:00
3:55 AM,62.6,62.6,100,30.20,5.0,Calm,Calm,-,N/A,,Overcast,0,2012-10-13 08:55:00
4:15 AM,62.6,62.6,100,30.20,5.0,Calm,Calm,-,N/A,,Mostly Cloudy,0,2012-10-13 09:15:00
4:35 AM,62.6,62.6,100,30.21,5.0,Calm,Calm,-,N/A,,Scattered Clouds,0,2012-10-13 09:35:00
4:55 AM,62.6,62.6,100,30.21,5.0,SSE,3.5,-,N/A,,Clear,150,2012-10-13 09:55:00
5:15 AM,62.6,62.6,100,30.21,7.0,SSE,3.5,-,N/A,,Clear,150,2012-10-13 10:15:00
5:35 AM,62.6,62.6,100,30.20,7.0,SE,3.5,-,N/A,,Clear,140,2012-10-13 10:35:00
6:15 AM,64.4,62.6,94,30.21,10.0,SE,5.8,-,N/A,,Clear,130,2012-10-13 11:15:00
6:55 AM,64.4,62.6,94,30.22,7.0,SSE,3.5,-,N/A,,Clear,160,2012-10-13 11:55:00
7:15 AM,62.6,62.6,100,30.23,7.0,SSE,3.5,-,N/A,,Clear,160,2012-10-13 12:15:00
7:35 AM,62.6,62.6,100,30.23,4.0,SSE,4.6,-,N/A,,Scattered Clouds,150,2012-10-13 12:35:00
7:55 AM,64.4,62.6,94,30.24,5.0,SSE,5.8,-,N/A,,Clear,150,2012-10-13 12:55:00
8:15 AM,64.4,62.6,94,30.24,5.0,SSE,6.9,-,N/A,,Mostly Cloudy,150,2012-10-13 13:15:00
8:55 AM,68.0,62.6,83,30.25,10.0,SSE,10.4,-,N/A,,Scattered Clouds,150,2012-10-13 13:55:00
9:15 AM,69.8,62.6,78,30.25,10.0,SSE,10.4,-,N/A,,Scattered Clouds,150,2012-10-13 14:15:00
9:35 AM,71.6,62.6,73,30.26,10.0,SE,12.7,17.3,N/A,,Clear,140,2012-10-13 14:35:00
9:55 AM,71.6,62.6,73,30.26,10.0,SE,10.4,16.1,N/A,,Clear,140,2012-10-13 14:55:00
10:35 AM,75.2,64.4,69,30.25,10.0,SSE,8.1,-,N/A,,Clear,150,2012-10-13 15:35:00
10:55 AM,75.2,62.6,65,30.24,10.0,SE,11.5,-,N/A,,Clear,140,2012-10-13 15:55:00
11:35 AM,77.0,64.4,65,30.22,10.0,SSE,8.1,-,N/A,,Clear,160,2012-10-13 16:35:00
11:55 AM,78.8,64.4,61,30.22,10.0,SSE,8.1,-,N/A,,Clear,150,2012-10-13 16:55:00
12:15 PM,78.8,64.4,61,30.21,10.0,SSE,11.5,16.1,N/A,,Clear,160,2012-10-13 17:15:00
12:35 PM,78.8,64.4,61,30.20,10.0,SSE,8.1,-,N/A,,Mostly Cloudy,160,2012-10-13 17:35:00
12:55 PM,78.8,64.4,61,30.19,10.0,South,8.1,-,N/A,,Mostly Cloudy,170,2012-10-13 17:55:00
1:15 PM,80.6,64.4,58,30.17,10.0,South,4.6,-,N/A,,Scattered Clouds,180,2012-10-13 18:15:00
1:35 PM,80.6,64.4,58,30.16,10.0,SE,11.5,-,N/A,,Scattered Clouds,140,2012-10-13 18:35:00
1:55 PM,82.4,64.4,54,30.15,10.0,SSE,9.2,-,N/A,,Scattered Clouds,150,2012-10-13 18:55:00
2:15 PM,82.4,64.4,54,30.14,10.0,South,8.1,-,N/A,,Scattered Clouds,170,2012-10-13 19:15:00
2:35 PM,82.4,62.6,51,30.13,10.0,SSE,11.5,16.1,N/A,,Scattered Clouds,160,2012-10-13 19:35:00
2:55 PM,82.4,62.6,51,30.12,10.0,SSE,10.4,-,N/A,,Scattered Clouds,160,2012-10-13 19:55:00
3:15 PM,80.6,62.6,54,30.12,10.0,South,8.1,-,N/A,,Scattered Clouds,180,2012-10-13 20:15:00
3:55 PM,80.6,62.6,54,30.11,10.0,SSE,9.2,-,N/A,,Scattered Clouds,160,2012-10-13 20:55:00
4:15 PM,80.6,62.6,54,30.10,10.0,South,6.9,-,N/A,,Clear,180,2012-10-13 21:15:00
4:35 PM,80.6,64.4,58,30.10,10.0,SSE,9.2,-,N/A,,Scattered Clouds,150,2012-10-13 21:35:00
4:55 PM,80.6,64.4,58,30.10,10.0,SSE,6.9,-,N/A,,Clear,160,2012-10-13 21:55:00
5:15 PM,80.6,64.4,58,30.09,10.0,SSE,8.1,-,N/A,,Clear,160,2012-10-13 22:15:00
5:35 PM,78.8,66.2,65,30.09,10.0,SSE,4.6,-,N/A,,Clear,160,2012-10-13 22:35:00
5:55 PM,77.0,66.2,69,30.10,10.0,SE,4.6,-,N/A,,Clear,140,2012-10-13 22:55:00
6:15 PM,73.4,66.2,78,30.10,10.0,Calm,Calm,-,N/A,,Clear,0,2012-10-13 23:15:00
6:35 PM,73.4,66.2,78,30.10,10.0,SE,3.5,-,N/A,,Clear,140,2012-10-13 23:35:00
6:55 PM,71.6,66.2,83,30.10,10.0,SE,3.5,-,N/A,,Clear,140,2012-10-13 23:55:00
7:15 PM,71.6,66.2,83,30.10,10.0,SSE,3.5,-,N/A,,Clear,150,2012-10-14 00:15:00
7:35 PM,69.8,64.4,83,30.10,10.0,SE,4.6,-,N/A,,Clear,140,2012-10-14 00:35:00
7:55 PM,71.6,66.2,83,30.11,10.0,SE,4.6,-,N/A,,Clear,140,2012-10-14 00:55:00
8:15 PM,69.8,64.4,83,30.10,10.0,SE,4.6,-,N/A,,Clear,140,2012-10-14 01:15:00
8:35 PM,69.8,64.4,83,30.10,10.0,SE,5.8,-,N/A,,Scattered Clouds,140,2012-10-14 01:35:00
8:55 PM,69.8,64.4,83,30.11,10.0,SSE,4.6,-,N/A,,Scattered Clouds,160,2012-10-14 01:55:00
9:15 PM,69.8,64.4,83,30.11,10.0,SSE,3.5,-,N/A,,Scattered Clouds,160,2012-10-14 02:15:00
10:15 PM,68.0,64.4,88,30.11,10.0,SSE,5.8,-,N/A,,Scattered Clouds,160,2012-10-14 03:15:00
11:15 PM,68.0,64.4,88,30.10,10.0,SSE,5.8,-,N/A,,Clear,160,2012-10-14 04:15:00
11:35 PM,68.0,64.4,88,30.10,10.0,South,4.6,-,N/A,,Clear,170,2012-10-14 04:35:00